Weather History for Quillayute, WA

Change the Weather History Date:

Friday, February 15, 2013

  Actual Average Record
Temperature  
Mean Temperature 50 °F 42 °F  
Max Temperature 57 °F 49 °F 70 °F (1996)
Min Temperature 43 °F 35 °F 21 °F (1989)
Degree Days  
Heating Degree Days 15 23  
Month to date heating degree days 307 345  
Since 1 July heating degree days 3415 3550  
Cooling Degree Days 0 0  
Month to date cooling degree days 0 0  
Year to date cooling degree days 0 0  
Moisture  
Dew Point 42 °F    
Average Humidity 78    
Maximum Humidity 89    
Minimum Humidity 66    
Precipitation  
Precipitation 0.00 in 0.35 in 3.05 in (1981)
Month to date precipitation 2.88 5.69  
Year to date precipitation 13.22 20.30  
Sea Level Pressure  
Sea Level Pressure 30.37 in    
Wind  
Wind Speed 2 mph (WNW)    
Max Wind Speed 8 mph    
Max Gust Speed 15 mph    
Visibility 2 miles    
Events Fog    
T = Trace of Precipitation, MM = Missing Value Source: NWS Daily Summary

Daily Weather History Graph

Daily Weather History Graph

Search for Another Location

Airport:

Trip Planner

Search our weather history database for the weather conditions in past years. The results will help you decide how hot, cold, wet, or windy it might be!

Date:

Astronomy

Feb. 15, 2013 Rise Set
Actual Time 7:23 AM PST 5:41 PM PST
Civil Twilight 6:51 AM PST 6:13 PM PST
Nautical Twilight 6:15 AM PST 6:49 PM PST
Astronomical Twilight 5:39 AM PST 7:25 PM PST
Moon 9:33 AM PST (2/15) No Moon Set
Length of Visible Light 11h 21m
Length of Day
10h 17m
Waxing Crescent, 31% of the Moon is Illuminated
Feb 15
Waxing Crescent
Feb 17
First Quarter
Feb 25
Full
Mar 4
Last Quarter
Mar 11
New

Hourly Weather History & Observations

Time (PST) Temp. Windchill Dew Point Humidity Pressure Visibility Wind Dir Wind Speed Gust Speed Precip Events Conditions
12:19 AM 48.2 °F - 44.6 °F 87% 30.53 in 2.5 mi Calm Calm - N/A   Overcast
12:29 AM 48.2 °F - 44.6 °F 87% 30.52 in 4.0 mi Calm Calm - N/A   Overcast
12:53 AM 48.0 °F - 45.0 °F 89% 30.52 in 3.0 mi Calm Calm - N/A   Overcast
1:06 AM 48.2 °F - 44.6 °F 87% 30.52 in 2.0 mi Calm Calm - N/A   Overcast
1:14 AM 48.2 °F - 44.6 °F 87% 30.52 in 1.2 mi Calm Calm - N/A   Overcast
1:28 AM 48.2 °F - 44.6 °F 87% 30.52 in 1.5 mi Calm Calm - N/A   Overcast
1:37 AM 48.2 °F - 44.6 °F 87% 30.52 in 3.0 mi Calm Calm - N/A   Overcast
1:53 AM 46.9 °F - 43.0 °F 86% 30.52 in 3.0 mi Calm Calm - N/A   Overcast
1:57 AM 46.4 °F - 42.8 °F 87% 30.51 in 1.5 mi Calm Calm - N/A   Overcast
1:59 AM 46.4 °F - 42.8 °F 87% 30.51 in 0.8 mi Calm Calm - N/A   Overcast
2:11 AM 46.4 °F - 42.8 °F 87% 30.51 in 0.2 mi Calm Calm - N/A Fog Fog
2:24 AM 46.4 °F - 42.8 °F 87% 30.51 in 0.5 mi Calm Calm - N/A Fog Fog
2:35 AM 46.4 °F - 42.8 °F 87% 30.51 in 0.2 mi Calm Calm - N/A Fog Fog
2:53 AM 46.0 °F - 43.0 °F 89% 30.51 in 0.2 mi Calm Calm - N/A Fog Fog
3:27 AM 44.6 °F - 41.0 °F 87% 30.50 in 0.2 mi Calm Calm - N/A Fog Fog
3:37 AM 44.6 °F - 42.8 °F 93% 30.50 in 1.0 mi Calm Calm - N/A   Overcast
3:40 AM 44.6 °F - 42.8 °F 93% 30.50 in 2.0 mi Calm Calm - N/A   Overcast
3:48 AM 44.6 °F - 42.8 °F 93% 30.50 in 4.0 mi Calm Calm - N/A   Overcast
3:53 AM 45.0 °F - 41.0 °F 86% 30.50 in 4.0 mi Calm Calm - N/A   Overcast
4:28 AM 44.6 °F - 41.0 °F 87% 30.49 in 3.0 mi Calm Calm - N/A   Overcast
4:37 AM 44.6 °F - 41.0 °F 87% 30.49 in 2.0 mi Calm Calm - N/A   Overcast
4:49 AM 44.6 °F - 41.0 °F 87% 30.48 in 1.2 mi Calm Calm - N/A   Overcast
4:53 AM 44.1 °F - 41.0 °F 89% 30.49 in 1.0 mi Calm Calm - N/A   Overcast
4:59 AM 44.6 °F - 39.2 °F 81% 30.48 in 1.5 mi Calm Calm - N/A   Overcast
5:03 AM 44.6 °F - 39.2 °F 81% 30.48 in 3.0 mi Calm Calm - N/A   Overcast
5:46 AM 44.6 °F - 41.0 °F 87% 30.47 in 1.5 mi Calm Calm - N/A   Overcast
5:48 AM 44.6 °F - 41.0 °F 87% 30.47 in 1.0 mi Calm Calm - N/A   Overcast
5:53 AM 44.1 °F - 41.0 °F 89% 30.48 in 0.5 mi Calm Calm - N/A Fog Fog
6:00 AM 44.6 °F - 41.0 °F 87% 30.47 in 0.5 mi Calm Calm - N/A Fog Fog
6:25 AM 44.6 °F - 41.0 °F 87% 30.46 in 1.5 mi Calm Calm - N/A   Overcast
6:37 AM 42.8 °F - 39.2 °F 87% 30.46 in 1.0 mi Calm Calm - N/A   Overcast
6:50 AM 42.8 °F - 39.2 °F 87% 30.45 in 2.5 mi Calm Calm - N/A   Overcast
6:53 AM 43.0 °F - 39.9 °F 89% 30.46 in 3.0 mi Calm Calm - N/A   Overcast
7:53 AM 45.0 °F - 41.0 °F 86% 30.45 in 4.0 mi Calm Calm - N/A   Overcast
8:16 AM 44.6 °F 42.2 °F 41.0 °F 87% 30.44 in 4.0 mi North 4.6 mph - N/A   Overcast
8:53 AM 46.9 °F - 42.1 °F 83% 30.44 in 4.0 mi Calm Calm - N/A   Haze
9:08 AM 48.2 °F - 42.8 °F 82% 30.43 in 5.0 mi Variable 4.6 mph - N/A   Haze
9:18 AM 48.2 °F - 42.8 °F 82% 30.43 in 5.0 mi ESE 4.6 mph - N/A   Haze
9:31 AM 48.2 °F - 42.8 °F 82% 30.42 in 5.0 mi ESE 3.5 mph - N/A   Haze
9:53 AM 50.0 °F - 43.0 °F 77% 30.42 in 5.0 mi NNE 4.6 mph - N/A   Haze
10:02 AM 50.0 °F - 42.8 °F 76% 30.41 in 5.0 mi North 4.6 mph - N/A   Haze
10:31 AM 51.8 °F - 44.6 °F 76% 30.40 in 5.0 mi NE 4.6 mph - N/A   Haze
10:53 AM 53.1 °F - 44.1 °F 71% 30.40 in 5.0 mi ESE 6.9 mph - N/A   Haze
11:53 AM 55.9 °F - 45.0 °F 67% 30.38 in 5.0 mi Variable 3.5 mph - N/A   Haze
12:02 PM 55.4 °F - 44.6 °F 67% 30.37 in 5.0 mi Variable 4.6 mph - N/A   Haze
12:53 PM 54.0 °F - 45.0 °F 72% 30.35 in 4.0 mi WNW 3.5 mph - N/A   Haze
1:14 PM 55.4 °F - 44.6 °F 67% 30.33 in 4.0 mi WSW 4.6 mph - N/A   Haze
1:53 PM 55.9 °F - 46.0 °F 69% 30.32 in 4.0 mi West 6.9 mph - N/A   Haze
2:53 PM 55.9 °F - 46.0 °F 69% 30.29 in 4.0 mi WSW 3.5 mph - N/A   Haze
3:53 PM 55.0 °F - 45.0 °F 69% 30.27 in 4.0 mi SSW 4.6 mph - N/A   Haze
4:53 PM 52.0 °F - 44.1 °F 74% 30.25 in 4.0 mi SW 4.6 mph - N/A   Haze
5:53 PM 46.9 °F - 43.0 °F 86% 30.23 in 3.0 mi Calm Calm - N/A   Clear
6:53 PM 44.1 °F - 41.0 °F 89% 30.23 in 3.0 mi Calm Calm - N/A   Clear
7:01 PM 44.6 °F - 39.2 °F 81% 30.22 in 2.5 mi Calm Calm - N/A   Clear
7:21 PM 44.6 °F - 39.2 °F 81% 30.21 in 1.2 mi Calm Calm - N/A   Haze
7:32 PM 44.6 °F - 39.2 °F 81% 30.21 in 2.0 mi Calm Calm - N/A   Haze
7:41 PM 44.6 °F - 39.2 °F 81% 30.21 in 4.0 mi Calm Calm - N/A   Haze
7:53 PM 43.0 °F - 39.0 °F 86% 30.21 in 3.0 mi Calm Calm - N/A   Mostly Cloudy
8:02 PM 44.6 °F - 39.2 °F 81% 30.21 in 2.5 mi Calm Calm - N/A   Mostly Cloudy
8:25 PM 44.6 °F - 39.2 °F 81% 30.20 in 1.5 mi Calm Calm - N/A   Overcast
8:32 PM 44.6 °F - 39.2 °F 81% 30.20 in 3.0 mi Calm Calm - N/A   Overcast
8:46 PM 44.6 °F - 39.2 °F 81% 30.20 in 2.0 mi Calm Calm - N/A   Overcast
8:53 PM 44.1 °F - 39.9 °F 85% 30.20 in 1.0 mi Calm Calm - N/A   Overcast
8:59 PM 44.6 °F - 39.2 °F 81% 30.19 in 0.2 mi Calm Calm - N/A Fog Fog
9:53 PM 44.1 °F - 39.9 °F 85% 30.19 in 0.2 mi Calm Calm - N/A Fog Fog
10:02 PM 44.6 °F - 39.2 °F 81% 30.19 in 0.8 mi Calm Calm - N/A   Mostly Cloudy
10:11 PM 44.6 °F - 41.0 °F 87% 30.19 in 1.0 mi Calm Calm - N/A   Mostly Cloudy
10:23 PM 44.6 °F - 41.0 °F 87% 30.19 in 1.5 mi Calm Calm - N/A   Overcast
10:53 PM 44.1 °F - 41.0 °F 89% 30.20 in 2.0 mi Calm Calm - N/A   Overcast
11:04 PM 44.6 °F - 41.0 °F 87% 30.19 in 1.2 mi Calm Calm - N/A   Overcast
11:16 PM 44.6 °F - 41.0 °F 87% 30.19 in 0.5 mi Calm Calm - N/A Fog Fog
11:42 PM 44.6 °F - 42.8 °F 93% 30.18 in 1.2 mi Calm Calm - N/A   Overcast
11:50 PM 44.6 °F - 42.8 °F 93% 30.19 in 1.5 mi Calm Calm - N/A   Overcast
11:53 PM 45.0 °F - 42.1 °F 90% 30.19 in 1.8 mi Calm Calm - N/A   Overcast